Regional Weather Roundup
Issued by NWS

Home | Current Version | Previous Version | Graphics & Text | Print | Product List | Glossary On
Versions: 1 2 3 4 5 6 7 8 9 10 11 12 13 14 15 16 17 18 19 20 21 22 23 24 25 26 27 28 29 30 31 32 33 34 35 36 37 38 39 40 41 42 43 44 45 46 47 48 49
000
ASUS45 KSLC 141110
RWRUT

UTAH REGIONAL WEATHER ROUNDUP
NATIONAL WEATHER SERVICE SALT LAKE CITY UT
500 AM MDT SUN SEP 14 2014

UTZ001>011-023>025-141200-

NORTHERN UTAH

CITY           SKY/WX    TMP DP  RH WIND       PRES   REMARKS
HILL AFB       PTCLDY    62  34  35 E15       30.02S
LOGAN          CLEAR     46  41  82 CALM      30.02S
OGDEN          PTCLDY    60  36  40 S8        29.99S
PROVO AIRPORT  PTCLDY    55  41  58 SE3       30.05S
SALT LAKE CITY MOCLDY    64  40  41 S7        29.98S
VERNAL         CLEAR     49  38  65 W3        30.13R
WENDOVER       PTCLDY    59  28  31 NE3       30.00S
HEBER CITY     PTCLDY    46  39  76 CALM      30.13F
WEST JORDAN    CLEAR     68  34  28 S14       30.01F

$$

UTZ012>022-026-027-141200-

SOUTHERN UTAH

CITY           SKY/WX    TMP DP  RH WIND       PRES   REMARKS
BRYCE CANYON   PTCLDY    43  36  76 W3        30.29S
CEDAR CITY     CLEAR     57  34  41 CALM      30.12S
MILFORD        CLEAR     55  37  50 SW9       30.07S
MOAB/CYNLANDS  CLEAR     61  39  44 CALM      30.06S
PRICE          PTCLDY    58  32  37 NE6       30.15S
ST GEORGE      MOSUNNY   70  43  37 CALM      29.97S
KANAB            N/A     55  37  50 N6        30.13F

$$

REGIONAL REPORTS     COLORADO/ARIZONA

CITY           SKY/WX    TMP DP  RH WIND       PRES   REMARKS
CRAIG, CO      CLEAR     37  33  85 CALM      30.20S
GRAND JUNCTION CLEAR     56  35  45 SE12      30.12R
RIFLE          CLEAR     45  37  73 SE3       30.20R
MONTROSE       CLEAR     52  37  56 SE6       30.21S
CORTEZ         CLEAR     44  39  82 NE6       30.22F
PAGE, AZ       CLEAR     71  41  33 S6        30.05S
GRAND CANYON   PTCLDY    46  42  86 CALM      30.23S
KINGMAN        CLEAR     73  52  47 SE9       29.98S
FLAGSTAFF      CLEAR     49  45  86 CALM      30.26F

$$

REGIONAL REPORTS    NEVADA/IDAHO/WYOMING

CITY           SKY/WX    TMP DP  RH WIND       PRES   REMARKS
LAS VEGAS, NV  CLEAR     80  41  24 SW9       29.82S
ELY            PTCLDY    53  28  38 S5        30.15S
ELKO           PTCLDY    50  26  39 E5        30.07R
POCATELLO, ID  CLEAR     43  33  68 N6        30.03R
BURLEY         CLEAR     49  34  56 CALM      30.00R
EVANSTON, WY   PTCLDY    51  27  39 S8        30.18F
ROCK SPRINGS   PTCLDY    54  23  30 E3        30.16F

$$



USA.gov is the U.S. government's official web portal to all federal, state and local government web resources and services.